Flag for Belgium Weather past 2 weeks in Liège, Belgium

Now
68 °F

Passing clouds.


Feels Like: 68 °F
Forecast: 60 / 75 °F
Wind: 8 mph from Southwest

Location: Bierset

Current Time: Sep 19, 2014 at 10:15:31 PM

Latest Report: Sep 19, 2014 at 9:50 PM


Visibility: N/A

Pressure: 29.92 "Hg

Humidity: 78%

Dew point: 61 °F

Location of LiègeLocation

Historic Weather in Liège — Graph

°F

Liège temperature yesterday

Maximum temperature yesterday: 75 °F (at 3:20 PM)
Minimum temperature yesterday: 63 °F (at 5:50 AM)
Average temperature yesterday: 66 °F

Past Weeks' High & Low Weather Summary

 TemperatureHumidityPressure
High77 °F (Sep 17, 2:50 PM)100% (Sep 7, 7:20 AM)30.27 "Hg (Sep 7, 7:20 AM)
Low46 °F (Sep 12, 6:50 AM)42% (Sep 17, 3:20 PM)29.80 "Hg (Sep 18, 3:50 PM)
Average62 °F80%30.03 "Hg
* Reported Sep 4 8:20 PM — Sep 19 8:50 PM, Liège, Weather by CustomWeather, © 2014

Note: Actual official high and low records may vary slightly from our data, if they occured in-between our weather recording intervals... More about our weather records

Advertising

Liège weather history for previous 24 hours

 ConditionsComfort  
Time TempWeatherWind HumidityBarometerVisibility
8:50 PM
Sep 19
70 °FPassing clouds.6 mph78%29.92 "HgN/A
8:20 PM68 °FPassing clouds.2 mph78%29.89 "HgN/A
7:50 PM70 °FPassing clouds.5 mph73%29.89 "HgN/A
7:20 PM72 °FPassing clouds.5 mph69%29.89 "HgN/A
6:50 PM72 °FPassing clouds.6 mph73%29.89 "HgN/A
6:20 PM73 °FPassing clouds.7 mph65%29.89 "HgN/A
5:50 PM75 °FPassing clouds.6 mph61%29.89 "HgN/A
5:20 PM73 °FPassing clouds.5 mph69%29.89 "HgN/A
4:50 PM73 °FPassing clouds.7 mph69%29.89 "HgN/A
4:20 PM75 °FPassing clouds.7 mph65%29.89 "HgN/A
3:50 PM73 °FPassing clouds.6 mph69%29.89 "HgN/A
3:20 PM73 °FPassing clouds.7 mph65%29.89 "HgN/A
2:50 PM75 °FPassing clouds.6 mph61%29.89 "HgN/A
2:20 PM75 °FPassing clouds.9 mph65%29.89 "HgN/A
1:50 PM73 °FPassing clouds.7 mph65%29.89 "HgN/A
1:20 PM73 °FPassing clouds.8 mph69%29.89 "HgN/A
12:50 PM72 °FPassing clouds.3 mph73%29.89 "HgN/A
12:20 PM72 °FPassing clouds.6 mph73%29.89 "HgN/A
11:50 AM70 °FPassing clouds.6 mph78%29.89 "HgN/A
11:20 AM70 °FPassing clouds.7 mph78%29.89 "HgN/A
10:50 AM68 °FPassing clouds.7 mph83%29.89 "HgN/A
10:20 AM66 °FPassing clouds.6 mph83%29.89 "HgN/A
9:50 AM64 °FScattered clouds.6 mph88%29.89 "HgN/A
9:20 AM64 °FPartly sunny.6 mph88%29.89 "HgN/A
8:50 AM63 °FPartly sunny.5 mph88%29.89 "HgN/A
8:20 AM63 °FPassing clouds.6 mph88%29.86 "HgN/A
7:50 AM61 °FPassing clouds.5 mph94%29.86 "HgN/A
7:20 AM61 °FClear.6 mph88%29.86 "Hg10 mi
6:50 AM61 °FPassing clouds.5 mph88%29.83 "HgN/A
6:20 AM61 °FPassing clouds.7 mph94%29.83 "HgN/A
5:50 AM63 °FPassing clouds.7 mph88%29.83 "HgN/A
5:20 AM63 °FPassing clouds.6 mph88%29.83 "HgN/A
4:50 AM63 °FPassing clouds.2 mph88%29.83 "HgN/A
4:20 AM63 °FPassing clouds.6 mph88%29.83 "HgN/A
3:50 AM63 °FPassing clouds.7 mph88%29.83 "HgN/A
3:20 AM63 °FPassing clouds.5 mph88%29.83 "HgN/A
2:50 AM63 °FPassing clouds.7 mph88%29.83 "HgN/A
2:20 AM63 °FPassing clouds.7 mph88%29.83 "HgN/A
1:50 AM63 °FPassing clouds.7 mph88%29.86 "HgN/A
1:20 AM63 °FPassing clouds.9 mph88%29.86 "HgN/A
12:50 AM63 °FPassing clouds.7 mph94%29.83 "HgN/A
12:20 AM64 °FPassing clouds.8 mph88%29.83 "HgN/A
11:50 PM
Sep 18
64 °FPassing clouds.8 mph88%29.83 "HgN/A
11:20 PM64 °FPassing clouds.6 mph88%29.83 "HgN/A
10:50 PM64 °FPassing clouds.6 mph88%29.86 "HgN/A
10:20 PM64 °FRain showers. Passing clouds.8 mph94%29.86 "Hg3 mi
Weather by CustomWeather, © 2014

See weather overviewHow to use our weather pages